MPEC 2008-C28 : 2008 CN1

The following Minor Planet Electronic Circular may be linked-to from your own Web pages, but must not otherwise be redistributed electronically.


Read MPEC 2008-C27 Read MPEC 2008-C29


M.P.E.C. 2008-C28                                Issued 2008 Feb. 4, 15:39 UT

     The Minor Planet Electronic Circulars contain information on unusual
         minor planets and routine data on comets.  They are published
   on behalf of Commission 20 of the International Astronomical Union by the
          Minor Planet Center, Smithsonian Astrophysical Observatory,
                          Cambridge, MA 02138, U.S.A.

             Prepared using the Tamkin Foundation Computer Network

                              MPC@CFA.HARVARD.EDU
          URL http://www.cfa.harvard.edu/iau/mpc.html  ISSN 1523-6714

                                   2008 CN1

Observations:
     K08C01N* C2008 02 02.47566 14 37 26.50 +09 40 24.7          17.9 V EC028703
     K08C01N  C2008 02 02.48225 14 37 23.88 +09 40 32.4          17.8 V EC028703
     K08C01N  C2008 02 02.48884 14 37 21.18 +09 40 39.9          17.6 V EC028703
     K08C01N  C2008 02 02.49545 14 37 18.51 +09 40 47.1          17.4 V EC028703
     K08C01N 5C2008 02 02.51534 14 37 11.13 +09 41 07.3          17.6 R EC028673
     K08C01N 5C2008 02 02.52170 14 37 08.62 +09 41 13.1                 EC028673
     K08C01N 5C2008 02 02.52483 14 37 07.32 +09 41 16.3                 EC028673
     K08C01N 5C2008 02 02.53061 14 37 04.96 +09 41 23.2                 EC028673
     K08C01N  C2008 02 03.01295 14 34 06.61 +09 49 46.3          17.3 V EC028A17
     K08C01N  C2008 02 03.01664 14 34 05.14 +09 49 50.9          17.2 V EC028A17
     K08C01N  C2008 02 03.02250 14 34 02.84 +09 49 57.9          17.1 V EC028A17
     K08C01N  C2008 02 03.02673 14 34 01.18 +09 50 03.0          17.0 V EC028A17
     K08C01N  C2008 02 03.04293 14 33 54.57 +09 50 25.8          17.8 V EC028B21
     K08C01N  C2008 02 03.04587 14 33 53.39 +09 50 29.1          17.9 V EC028B21
     K08C01N  C2008 02 03.04881 14 33 52.20 +09 50 32.5          18.1 V EC028B21
     K08C01N  C2008 02 03.09578 14 33 32.82 +09 51 29.2          18.6 V EC028B03
     K08C01N  C2008 02 03.09970 14 33 31.15 +09 51 34.3          18.5 V EC028B03
     K08C01N  C2008 02 03.11143 14 33 26.29 +09 51 47.6          18.5 V EC028B03
     K08C01N  C2008 02 03.11534 14 33 24.65 +09 51 52.5          18.3 V EC028B03
     K08C01N  C2008 02 03.15688 14 33 07.09 +09 52 40.6          16.9 R EC028118
     K08C01N  C2008 02 03.15952 14 33 05.99 +09 52 43.8          16.9 R EC028118
     K08C01N  C2008 02 03.16084 14 33 05.44 +09 52 45.2          16.9 R EC028118
     K08C01N  C2008 02 03.36644 14 31 49.36 +09 57 01.8          17.7 R EC028854
     K08C01N  C2008 02 03.36739 14 31 49.00 +09 57 02.8          17.8 R EC028854
     K08C01N  C2008 02 03.36835 14 31 48.56 +09 57 03.5          17.5 R EC028854
     K08C01N  C2008 02 03.36931 14 31 48.19 +09 57 05.1          17.6 R EC028854
     K08C01N  C2008 02 03.44405 14 31 16.24 +09 58 37.4          17.7 V EC028G96
     K08C01N  C2008 02 03.44459 14 31 16.03 +09 58 37.9          17.8 V EC028G96
     K08C01N  C2008 02 03.44513 14 31 15.78 +09 58 38.9          17.8 V EC028G96
     K08C01N  C2008 02 03.44566 14 31 15.52 +09 58 39.3          17.8 V EC028G96
     K08C01N  C2008 02 03.45686 14 31 10.28 +09 58 51.5          18.1   EC028704
     K08C01N  C2008 02 03.45932 14 31 08.95 +09 59 00.9          17.6 R EC028711
     K08C01N  C2008 02 03.46306 14 31 07.32 +09 59 05.4          17.9 R EC028711
     K08C01N  C2008 02 03.46681 14 31 05.66 +09 59 09.9          17.9 R EC028711
     K08C01N  C2008 02 03.49540 14 30 53.26 +09 59 38.1          17.6   EC028704
     K08C01N  C2008 02 03.50821 14 30 47.56 +09 59 52.9          17.9   EC028704
     K08C01N  C2008 02 03.51452 14 30 44.72 +10 00 03.4          17.1 R EC028448
     K08C01N  C2008 02 03.51716 14 30 43.54 +10 00 06.4          17.3 R EC028448
     K08C01N  C2008 02 03.51981 14 30 42.36 +10 00 09.5          17.2 R EC028448
     K08C01N  C2008 02 03.52245 14 30 41.17 +10 00 12.8          17.0 R EC028448
     K08C01N  C2008 02 03.52542 14 30 39.85 +10 00 16.3          17.1 R EC028448
     K08C01N  C2008 02 04.00434 14 27 25.90 +10 09 07.8          17.3 R EC028A80
     K08C01N  C2008 02 04.00623 14 27 25.09 +10 09 10.3          17.2 R EC028A80
     K08C01N  C2008 02 04.00812 14 27 24.28 +10 09 12.8          17.1 R EC028A80
     K08C01N  C2008 02 04.01004 14 27 23.43 +10 09 15.5          17.0 R EC028A80
     K08C01N  C2008 02 04.05058 14 27 05.84 +10 10 12.3                 EC028246
     K08C01N  C2008 02 04.05097 14 27 05.66 +10 10 13.0                 EC028246
     K08C01N  C2008 02 04.05189 14 27 05.25 +10 10 14.0                 EC028246
     K08C01N  C2008 02 04.05235 14 27 05.04 +10 10 14.7                 EC028246
     K08C01N  C2008 02 04.05304 14 27 04.72 +10 10 15.4                 EC028246
     K08C01N  C2008 02 04.45556 14 24 08.49 +10 19 11.5          17.2 R EC028711
     K08C01N  C2008 02 04.45918 14 24 06.73 +10 19 16.0          17.4 R EC028711
     K08C01N  C2008 02 04.46280 14 24 04.99 +10 19 20.7          17.3 R EC028711

Observer details:
118 Modra.  Observers S. Gajdos, J. Vilagi.  0.6-m f/5.5 reflector + CCD.
246 Klet Observatory-KLENOT.  Observers M. Tichy, J. Ticha.  Measurer M. Tichy.
    1.06-m KLENOT Telescope + CCD.
448 Desert Moon Observatory.  Observer B. L. Stevens.  0.3-m
    Schmidt-Cassegrain + CCD.
673 Table Mountain Observatory, Wrightwood.  Observer J. Young.  0.61-m f/16
    Cassegrain + CCD.
703 Catalina Sky Survey.  Observer A. Boattini.  Measurers E. C. Beshore,
    A. Boattini, G. J. Garradd, A. R. Gibbs, A. D. Grauer, R. E. Hill,
    R. A. Kowalski, S. M. Larson, R. H. McNaught.  0.68-m Schmidt + CCD.
704 Lincoln Laboratory ETS, New Mexico.  Observers M. Bezpalko, D. Torres,
    R. Kracke, G. Spitz, J. Kistler.  Measurers J. Stuart, S. Scruggs.  1.0-m
    f/2.15 reflector + CCD.
711 McDonald Observatory.  Observer J. G. Ries.  0.76-m reflector + CCD
    + prime-focus corrector.
854 Sabino Canyon Observatory, Tucson.  Observer J. E. McGaha.  0.36-m f/10.0
    Schmidt-Cassegrain + CCD.
A17 Guidestar Observatory, Weinheim.  Observers M. Emmerich, S. Melchert.
    0.36-m f/6 Schmidt-Cassegrain + CCD.
A80 Lindenberg Observatory.  Observer A. Knoefel.  0.30-m f/4 reflector + CCD.
B03 Alter Satzberg, Vienna.  Observer M. Pietschnig.  0.35-m f/7
    Schmidt-Cassegrain + CCD.
B21 Gaisberg Observatory, Schaerding.  Observer R. Gierlinger.  0.6-m f/3.3
    Newtonian reflector + CCD.
G96 Mt. Lemmon Survey.  Observer A. R. Gibbs.  Measurers E. C. Beshore,
    A. Boattini, G. J. Garradd, A. R. Gibbs, A. D. Grauer, R. E. Hill,
    R. A. Kowalski, S. M. Larson, R. H. McNaught.  1.5-m reflector + CCD.

Orbital elements:
2008 CN1                                            PHA, Earth MOID = 0.0348 AU
Epoch 2007 Oct. 27.0 TT = JDT 2454400.5                 MPC
M 355.28992              (2000.0)            P               Q
n   1.45568359     Peri.    7.12888     +0.93184455     +0.35797820
a   0.7710657      Node   331.66834     -0.33878030     +0.79976677
e   0.3469939      Incl.    7.17896     -0.12997552     +0.48189699
P   0.68           H   20.7           G   0.15           U   9
Residuals in seconds of arc
080202 703  0.0   0.4-    080203 B03  0.1-  0.1+    080203 448  0.2-  0.3-
080202 703  0.4+  0.1-    080203 118  0.4-  0.3-    080203 448  0.3-  0.4-
080202 703  0.2-  0.1-    080203 118  0.2-  0.2-    080203 448  0.2-  0.4-
080202 703  0.2-  0.3-    080203 118  0.0   0.3-    080203 448  0.4-  0.3-
080202 673  0.2-  1.5+    080203 854  0.0   0.6+    080203 448  0.3-  0.3-
080202 673  0.7+  0.2+    080203 854  0.6+  0.4+    080204 A80  0.2-  0.0
080202 673  0.3+  0.1-    080203 854  0.0   0.1-    080204 A80  0.0   0.1+
080202 673  0.1+  0.3+    080203 854  0.4+  0.3+    080204 A80  0.2+  0.1+
080203 A17  0.3-  0.3-    080203 G96  0.4-  0.4-    080204 A80  0.1+  0.3+
080203 A17  0.5-  0.2-    080203 G96  0.1-  0.5-    080204 246  0.3+  0.0
080203 A17  0.2-  0.2-    080203 G96  0.3-  0.2-    080204 246  0.2+  0.2+
080203 A17  0.0   0.3-    080203 G96  0.7-  0.4-    080204 246  0.2+  0.0
080203 B21  0.2-  0.7+    080203 704  1.0+  0.1-    080204 246  0.2+  0.1+
080203 B21  0.1-  0.4+    080203 711  0.1-  0.2+    080204 246  0.0   0.1-
080203 B21  0.1-  0.3+    080203 711  0.2+  0.1+    080204 711  0.2-  0.4+
080203 B03  0.3+  0.1-    080203 711  0.2+  0.1+    080204 711  0.2-  0.2+
080203 B03  0.3-  0.4+    080203 704  0.7+  0.1-    080204 711  0.0   0.2+
080203 B03  0.0   0.2-    080203 704  0.5+  0.6-

